Location: Hurecourt
(47.9030°N, 6.0653°E)
Time: 10:30:30
(UTC+00:00)

Helios 1B rocket - Pass Details

Date: 14 July 2020
Orbit: 574 x 584 km, 98.1° (Epoch: 05 August)

Event Time Altitude Azimuth Distance (km) Brightness Sun altitude
Rises 00:25:36 0° 12° (NNE) 2,810 7.6 -19.8°
Reaches altitude 10° 00:27:46 10° 10° (N) 1,904 6.3 -19.7°
Maximum altitude 00:31:53 74° 286° (WNW) 607 2.4 -19.6°
Enters shadow 00:32:54 49° 216° (SW) 752 2.6 -19.5°
